Location: Ethel Rock
(53.4667°N, 4.5667°W)
Time: 00:14:09
(UTC+00:00)

Cosmos 1025 Rocket - Pass Details

Date: 24 October 2020
Orbit: 593 x 619 km, 82.5° (Epoch: 26 November)

Event Time Altitude Azimuth Distance (km) Brightness Sun altitude
Exits shadow 05:22:50 20° 232° (SW) 1,453 4.5 -15.4°
Maximum altitude 05:25:25 38° 289° (WNW) 954 3.5 -15.0°
Drops below altitude 10° 05:29:34 10° 359° (N) 2,000 5.7 -14.4°
Sets 05:31:56 0° 7° (N) 2,909 6.6 -14.1°
